Robertsdale, AL (36567)

9:15 PM CDT on April 20, 2015 (GMT -0500)
KALROBER4 | | Change Station
CLOSE
Current Station
Personal Weather Station
Location: Robertsdale, AL
Elevation: 156 ft
Nearby Weather Stations
Active Advisory: Coastal Hazard Statement

Elev 156 ft 30.55 °N, 87.70 °W | Updated 5 seconds ago

Partly Cloudy
Partly Cloudy
69.4 °F
Feels Like 69.4 °F
N
2.7
Wind Variable Wind from East
Gusts 2.7 mph

Today
High -- | Low -- °F
--% Chance of Precip.
Yesterday
High -- | Low -- °F
Precip. -- in
6:17 AM 7:21 PM
Waxing Crescent, 7% visible
Pressure 29.91 in
Visibility 10.0 miles
Clouds Clear
Dew Point 60 °F
Humidity 72%
Rainfall 0.07 in
Snow Depth Not available.
UV 0 out of 12
Pollen 10.10 out of 12
Air Quality Not available.
Flu Activity Sporadic
METAR KCQF 210155Z AUTO 31004KT 10SM CLR 21/14 A2991 RMK AO2

More Conditions Fewer Conditions

Pressure 29.91 in
Visibility 10.0 miles
Clouds Clear
Dew Point 60 °F
Humidity 72%
Rainfall 0.07 in
Snow Depth Not available.
UV 0 out of 12
Pollen 10.10 out of 12
Air Quality Not available.
Flu Activity Sporadic
METAR KCQF 210155Z AUTO 31004KT 10SM CLR 21/14 A2991 RMK AO2

More Conditions Fewer Conditions

10-Day Weather Forecast

Almanac

Astronomy

Apr. 20, 2015 Rise Set
Actual Time
Civil Twilight
Nautical Twilight
Astronomical Twilight
Moon
Length of Visible Light
Length of Day
Tomorrow will be .
, % of the Moon is Illuminated

Today's Extremes

State Highs State Lows

Community

WunderPhotos

Upload Photos

1,815,278 photos uploaded!

WunderBlogs® & News

Nearby

Air Quality

  Air Quality AQ Index Pollutant
Not available.

Snow Depth

Station Depth Elevation

Earthquake Activity

City Distance Mag. Time & Date
Minimum magnitude displayed is 2.5.

Coastal Water Temperatures

Place Temperature

Stations

Nearby Weather Stations

Station Location Temp. Windchill Dew Point Humidity Wind Precip. Elev Updated Type
                   
Coastal Hazard Statement
Statement as of 7:13 PM CDT on April 20, 2015

... High rip current risk remains in effect until 6 am CDT
Tuesday...

* timing... through tonight.

* Impacts... dangerous swimming conditions can be expected due to
the presence of stronger and more frequent rip currents.

Precautionary/preparedness actions...

There is a high risk of rip currents.

Rip currents are powerful channels of water flowing quickly away
from shore... which occur most often at low spots or breaks in The
Sandbar and in the vicinity of structures such as groins...
jetties and piers. Heed the advice of lifeguards and the beach
patrol. Pay attention to flags and posted signs.

If you become caught in a rip current... do not panic. Remain calm
and begin to swim parallel to shore. Once you are away from the
force of the rip current... begin to swim back to the beach. Do
not attempt to swim directly against a rip current. Even a strong
swimmer can become exhausted quickly.